TimeAST,TemperatureF,Dew PointF,Humidity,Sea Level PressureIn,VisibilityMPH,Wind Direction,Wind SpeedMPH,Gust SpeedMPH,PrecipitationIn,Events,Conditions,WindDirDegrees,DateUTC
12:00 AM,17.6,14.0,86,30.35,15.0,SE,2.3,-,N/A,,Clear,130,2012-11-28 04:00:00
1:00 AM,14.0,12.2,93,30.33,15.0,Calm,Calm,-,N/A,,Clear,0,2012-11-28 05:00:00
2:00 AM,13,11,85,30.33,15,West,2.3,,,,Mostly Cloudy,270,2012-11-28 06:00:00
2:00 AM,12.2,10.4,92,30.33,15.0,West,2.3,-,N/A,,Mostly Cloudy,280,2012-11-28 06:00:00
3:00 AM,17.6,10.4,73,30.34,15.0,Variable,2.3,-,N/A,,Clear,0,2012-11-28 07:00:00
4:00 AM,17.6,14.0,86,30.32,15.0,Calm,Calm,-,N/A,,Clear,0,2012-11-28 08:00:00
5:00 AM,15.8,12.2,86,30.32,15.0,Calm,Calm,-,N/A,,Clear,0,2012-11-28 09:00:00
6:00 AM,17.6,14.0,86,30.30,15.0,Calm,Calm,-,N/A,,Partly Cloudy,0,2012-11-28 10:00:00
7:00 AM,17.6,14.0,86,30.29,15.0,North,3.5,-,N/A,,Mostly Cloudy,350,2012-11-28 11:00:00
8:00 AM,18,15,80,30.29,15,NNW,3.5,,,,Scattered Clouds,330,2012-11-28 12:00:00
8:00 AM,17.6,14.0,86,30.29,15.0,NNW,3.5,-,N/A,,Mostly Cloudy,330,2012-11-28 12:00:00
9:00 AM,19.4,17.6,93,30.30,15.0,Calm,Calm,-,N/A,,Mostly Cloudy,0,2012-11-28 13:00:00
10:00 AM,24.8,21.2,86,30.29,15.0,Calm,Calm,-,N/A,,Mostly Cloudy,0,2012-11-28 14:00:00
11:00 AM,30.2,21.2,69,30.24,15.0,East,6.9,-,N/A,,Mostly Cloudy,80,2012-11-28 15:00:00
12:00 PM,32.0,21.2,64,30.22,15.0,NE,8.1,-,N/A,,Mostly Cloudy,50,2012-11-28 16:00:00
1:00 PM,33.8,21.2,60,30.17,15.0,ENE,10.4,-,N/A,,Mostly Cloudy,60,2012-11-28 17:00:00
2:00 PM,32,22,56,30.15,15,North,8.1,,,,Mostly Cloudy,0,2012-11-28 18:00:00
2:00 PM,32.0,21.2,64,30.15,15.0,North,8.1,-,N/A,,Mostly Cloudy,350,2012-11-28 18:00:00
2:17 PM,30.2,23.0,75,30.15,15.0,NNW,8.1,-,N/A,Snow,Light Snow Showers,340,2012-11-28 18:17:00
3:00 PM,30.2,24.8,80,30.13,15.0,North,6.9,-,N/A,Snow,Light Snow Showers,10,2012-11-28 19:00:00
4:00 PM,30.2,24.8,80,30.12,15.0,North,5.8,-,N/A,Snow,Light Snow Showers,10,2012-11-28 20:00:00
5:00 PM,30.2,24.8,80,30.10,15.0,NNE,10.4,-,N/A,Snow,Light Snow Showers,20,2012-11-28 21:00:00
6:00 PM,30.2,24.8,80,30.10,15.0,NNE,8.1,-,N/A,Snow,Light Snow Showers,20,2012-11-28 22:00:00
7:00 PM,30.2,24.8,80,30.09,15.0,NNW,5.8,-,N/A,Snow,Light Snow Showers,340,2012-11-28 23:00:00
8:00 PM,31,25,69,30.08,15,North,4.6,,,Snow,Light Snow Showers,0,2012-11-29 00:00:00
8:00 PM,30.2,24.8,80,30.08,15.0,North,4.6,-,N/A,Snow,Light Snow Showers,360,2012-11-29 00:00:00
9:00 PM,30.2,26.6,86,30.06,15.0,NW,2.3,-,N/A,,Overcast,320,2012-11-29 01:00:00
10:00 PM,30.2,21.2,69,30.04,15.0,North,8.1,-,N/A,,Overcast,10,2012-11-29 02:00:00
11:00 PM,30.2,23.0,75,30.01,15.0,North,5.8,-,N/A,,Overcast,350,2012-11-29 03:00:00